<?xml version='1.0' encoding='UTF-8'?>
<gpx xmlns="http://www.topografix.com/GPX/1/1" creator="www.balnam.be" version="1.1" xmlns:xsi="http://www.w3.org/2001/XMLSchema-instance" xsi:schemaLocation="http://www.topografix.com/GPX/1/1 http://www.topografix.com/GPX/1/1/gpx.xsd">
<trk>
<name>hcmsl1</name>
<cmt>v</cmt>
<desc>Salles Chemin n°1 </desc>
<link href="https://chemins.be/salles/chemin/1"/><trkseg>
<trkpt lat="50.056325" lon="4.254960"><time>2026-05-03T07:34:51Z</time></trkpt>
<trkpt lat="50.054252" lon="4.265356"><time>2026-05-03T07:44:51Z</time></trkpt>
<trkpt lat="50.053156" lon="4.270613"><time>2026-05-03T07:54:51Z</time></trkpt>
</trkseg>
</trk>
<trk>
<name>hcmsl10</name>
<cmt>v</cmt>
<desc>Salles Chemin n°10 </desc>
<link href="https://chemins.be/salles/chemin/10"/><trkseg>
<trkpt lat="50.055100" lon="4.246968"><time>2026-05-03T07:34:51Z</time></trkpt>
<trkpt lat="50.054658" lon="4.247060"><time>2026-05-03T07:44:51Z</time></trkpt>
</trkseg></trk>
<trk>
<name>hcmsl10</name>
<cmt>q</cmt>
<desc>Salles Chemin n°10 </desc>
<link href="https://chemins.be/salles/chemin/10"/><trkseg>
<trkpt lat="50.054658" lon="4.247060"><time>2026-05-03T07:44:51Z</time></trkpt>
<trkpt lat="50.054051" lon="4.247694"><time>2026-05-03T07:54:51Z</time></trkpt>
</trkseg>
</trk>
<trk>
<name>hcmsl12</name>
<cmt>q</cmt>
<desc>Salles Chemin n°12 Sainte-Barbe</desc>
<link href="https://chemins.be/salles/chemin/12"/><trkseg>
<trkpt lat="50.056676" lon="4.242322"><time>2026-05-03T07:34:51Z</time></trkpt>
<trkpt lat="50.057716" lon="4.242602"><time>2026-05-03T07:44:51Z</time></trkpt>
</trkseg></trk>
<trk>
<name>hcmsl12</name>
<cmt>r</cmt>
<desc>Salles Chemin n°12 Sainte-Barbe</desc>
<link href="https://chemins.be/salles/chemin/12"/><trkseg>
<trkpt lat="50.057716" lon="4.242602"><time>2026-05-03T07:44:51Z</time></trkpt>
<trkpt lat="50.057656" lon="4.241892"><time>2026-05-03T07:54:51Z</time></trkpt>
</trkseg></trk>
<trk>
<name>hcmsl12</name>
<cmt>v</cmt>
<desc>Salles Chemin n°12 Sainte-Barbe</desc>
<link href="https://chemins.be/salles/chemin/12"/><trkseg>
<trkpt lat="50.057656" lon="4.241892"><time>2026-05-03T07:54:51Z</time></trkpt>
<trkpt lat="50.058486" lon="4.241452"><time>2026-05-03T08:04:51Z</time></trkpt>
<trkpt lat="50.058796" lon="4.241182"><time>2026-05-03T08:14:51Z</time></trkpt>
<trkpt lat="50.058966" lon="4.240302"><time>2026-05-03T08:24:51Z</time></trkpt>
<trkpt lat="50.059527" lon="4.236569"><time>2026-05-03T08:34:51Z</time></trkpt>
<trkpt lat="50.060033" lon="4.233967"><time>2026-05-03T08:44:51Z</time></trkpt>
<trkpt lat="50.061149" lon="4.231885"><time>2026-05-03T08:54:51Z</time></trkpt>
<trkpt lat="50.061190" lon="4.230040"><time>2026-05-03T09:04:51Z</time></trkpt>
</trkseg>
</trk>
<trk>
<name>hcmsl15</name>
<cmt>v</cmt>
<desc>Salles Chemin n°15 </desc>
<link href="https://chemins.be/salles/chemin/15"/><trkseg>
<trkpt lat="50.052468" lon="4.264077"><time>2026-05-03T07:34:51Z</time></trkpt>
<trkpt lat="50.054297" lon="4.265416"><time>2026-05-03T07:44:51Z</time></trkpt>
<trkpt lat="50.058177" lon="4.266892"><time>2026-05-03T07:54:51Z</time></trkpt>
<trkpt lat="50.059912" lon="4.268124"><time>2026-05-03T08:04:51Z</time></trkpt>
</trkseg>
</trk>
<trk>
<name>hcmsl18</name>
<cmt>v</cmt>
<desc>Salles Chemin n°18 </desc>
<link href="https://chemins.be/salles/chemin/18"/><trkseg>
<trkpt lat="50.078675" lon="4.258000"><time>2026-05-03T07:34:51Z</time></trkpt>
<trkpt lat="50.082376" lon="4.259614"><time>2026-05-03T07:44:51Z</time></trkpt>
</trkseg></trk>
<trk>
<name>hcmsl18</name>
<cmt>q</cmt>
<desc>Salles Chemin n°18 </desc>
<link href="https://chemins.be/salles/chemin/18"/><trkseg>
<trkpt lat="50.082376" lon="4.259614"><time>2026-05-03T07:44:51Z</time></trkpt>
<trkpt lat="50.083037" lon="4.260541"><time>2026-05-03T07:54:51Z</time></trkpt>
<trkpt lat="50.085019" lon="4.259648"><time>2026-05-03T08:04:51Z</time></trkpt>
<trkpt lat="50.086341" lon="4.256936"><time>2026-05-03T08:14:51Z</time></trkpt>
<trkpt lat="50.089707" lon="4.256097"><time>2026-05-03T08:24:51Z</time></trkpt>
<trkpt lat="50.089911" lon="4.255410"><time>2026-05-03T08:34:51Z</time></trkpt>
<trkpt lat="50.090770" lon="4.255247"><time>2026-05-03T08:44:51Z</time></trkpt>
<trkpt lat="50.090948" lon="4.254710"><time>2026-05-03T08:54:51Z</time></trkpt>
</trkseg>
</trk>
<trk>
<name>hcmsl19</name>
<cmt>r</cmt>
<desc>Salles Chemin n°19 </desc>
<link href="https://chemins.be/salles/chemin/19"/><trkseg>
<trkpt lat="50.094048" lon="4.230565"><time>2026-05-03T07:34:51Z</time></trkpt>
<trkpt lat="50.093629" lon="4.233603"><time>2026-05-03T07:44:51Z</time></trkpt>
</trkseg></trk>
<trk>
<name>hcmsl19</name>
<cmt>q</cmt>
<desc>Salles Chemin n°19 </desc>
<link href="https://chemins.be/salles/chemin/19"/><trkseg>
<trkpt lat="50.093629" lon="4.233603"><time>2026-05-03T07:44:51Z</time></trkpt>
<trkpt lat="50.093839" lon="4.234255"><time>2026-05-03T07:54:51Z</time></trkpt>
<trkpt lat="50.095039" lon="4.235337"><time>2026-05-03T08:04:51Z</time></trkpt>
</trkseg>
</trk>
<trk>
<name>hcmsl2</name>
<cmt>v</cmt>
<desc>Salles Chemin n°2 Rue des Carrières</desc>
<link href="https://chemins.be/salles/chemin/2"/><trkseg>
<trkpt lat="50.046569" lon="4.229603"><time>2026-05-03T07:34:51Z</time></trkpt>
<trkpt lat="50.046691" lon="4.232719"><time>2026-05-03T07:44:51Z</time></trkpt>
<trkpt lat="50.047148" lon="4.235148"><time>2026-05-03T07:54:51Z</time></trkpt>
<trkpt lat="50.047203" lon="4.236289"><time>2026-05-03T08:04:51Z</time></trkpt>
<trkpt lat="50.047201" lon="4.240156"><time>2026-05-03T08:14:51Z</time></trkpt>
<trkpt lat="50.046542" lon="4.245482"><time>2026-05-03T08:24:51Z</time></trkpt>
<trkpt lat="50.047021" lon="4.247894"><time>2026-05-03T08:34:51Z</time></trkpt>
<trkpt lat="50.047642" lon="4.258215"><time>2026-05-03T08:44:51Z</time></trkpt>
<trkpt lat="50.047243" lon="4.263082"><time>2026-05-03T08:54:51Z</time></trkpt>
<trkpt lat="50.047635" lon="4.270737"><time>2026-05-03T09:04:51Z</time></trkpt>
</trkseg>
</trk>
<trk>
<name>hcmsl21</name>
<cmt>q</cmt>
<desc>Salles Chemin n°21 </desc>
<link href="https://chemins.be/salles/chemin/21"/><trkseg>
<trkpt lat="50.096205" lon="4.220280"><time>2026-05-03T07:34:51Z</time></trkpt>
<trkpt lat="50.097328" lon="4.220185"><time>2026-05-03T07:44:51Z</time></trkpt>
<trkpt lat="50.097785" lon="4.220881"><time>2026-05-03T07:54:51Z</time></trkpt>
</trkseg>
</trk>
<trk>
<name>hcmsl22</name>
<cmt>v</cmt>
<desc>Salles Chemin n°22 </desc>
<link href="https://chemins.be/salles/chemin/22"/><trkseg>
<trkpt lat="50.047198" lon="4.236307"><time>2026-05-03T07:34:51Z</time></trkpt>
<trkpt lat="50.046790" lon="4.235122"><time>2026-05-03T07:44:51Z</time></trkpt>
</trkseg>
</trk>
<trk>
<name>hcmsl23</name>
<cmt>q</cmt>
<desc>Salles Sentier n°23 </desc>
<link href="https://chemins.be/salles/sentier/23"/><trkseg>
<trkpt lat="50.094590" lon="4.228168"><time>2026-05-03T07:34:51Z</time></trkpt>
<trkpt lat="50.093860" lon="4.232166"><time>2026-05-03T07:44:51Z</time></trkpt>
</trkseg></trk>
<trk>
<name>hcmsl23</name>
<cmt>d</cmt>
<desc>Salles Sentier n°23 </desc>
<link href="https://chemins.be/salles/sentier/23"/><trkseg>
<trkpt lat="50.093860" lon="4.232166"><time>2026-05-03T07:44:51Z</time></trkpt>
<trkpt lat="50.092286" lon="4.234478"><time>2026-05-03T07:54:51Z</time></trkpt>
<trkpt lat="50.092024" lon="4.252267"><time>2026-05-03T08:04:51Z</time></trkpt>
<trkpt lat="50.090957" lon="4.254688"><time>2026-05-03T08:14:51Z</time></trkpt>
</trkseg>
</trk>
<trk>
<name>hcmsl23bis</name>
<cmt>d</cmt>
<desc>Salles Sentier n°23bis </desc>
<link href="https://chemins.be/salles/sentier/23bis"/><trkseg>
<trkpt lat="50.093848" lon="4.231755"><time>2026-05-03T07:34:51Z</time></trkpt>
<trkpt lat="50.092130" lon="4.231498"><time>2026-05-03T07:44:51Z</time></trkpt>
<trkpt lat="50.091783" lon="4.234536"><time>2026-05-03T07:54:51Z</time></trkpt>
<trkpt lat="50.092306" lon="4.234596"><time>2026-05-03T08:04:51Z</time></trkpt>
</trkseg>
</trk>
<trk>
<name>hcmsl25</name>
<cmt>q</cmt>
<desc>Salles Sentier n°25 </desc>
<link href="https://chemins.be/salles/sentier/25"/><trkseg>
<trkpt lat="50.057972" lon="4.245656"><time>2026-05-03T07:34:51Z</time></trkpt>
<trkpt lat="50.062499" lon="4.249220"><time>2026-05-03T07:44:51Z</time></trkpt>
</trkseg>
</trk>
<trk>
<name>hcmsl26</name>
<cmt>q</cmt>
<desc>Salles Sentier n°26 </desc>
<link href="https://chemins.be/salles/sentier/26"/><trkseg>
<trkpt lat="50.056093" lon="4.256279"><time>2026-05-03T07:34:51Z</time></trkpt>
<trkpt lat="50.056837" lon="4.256245"><time>2026-05-03T07:44:51Z</time></trkpt>
<trkpt lat="50.057134" lon="4.255739"><time>2026-05-03T07:54:51Z</time></trkpt>
<trkpt lat="50.058744" lon="4.251248"><time>2026-05-03T08:04:51Z</time></trkpt>
<trkpt lat="50.059515" lon="4.244231"><time>2026-05-03T08:14:51Z</time></trkpt>
<trkpt lat="50.061079" lon="4.232102"><time>2026-05-03T08:24:51Z</time></trkpt>
</trkseg>
</trk>
<trk>
<name>hcmsl27</name>
<cmt>q</cmt>
<desc>Salles Sentier n°27 </desc>
<link href="https://chemins.be/salles/sentier/27"/><trkseg>
<trkpt lat="50.057571" lon="4.251340"><time>2026-05-03T07:34:51Z</time></trkpt>
<trkpt lat="50.059587" lon="4.256816"><time>2026-05-03T07:44:51Z</time></trkpt>
<trkpt lat="50.060083" lon="4.258550"><time>2026-05-03T07:54:51Z</time></trkpt>
</trkseg>
</trk>
<trk>
<name>hcmsl28</name>
<cmt>q</cmt>
<desc>Salles Sentier n°28 </desc>
<link href="https://chemins.be/salles/sentier/28"/><trkseg>
<trkpt lat="50.054264" lon="4.265382"><time>2026-05-03T07:34:51Z</time></trkpt>
<trkpt lat="50.058221" lon="4.265502"><time>2026-05-03T07:44:51Z</time></trkpt>
<trkpt lat="50.061935" lon="4.265485"><time>2026-05-03T07:54:51Z</time></trkpt>
</trkseg>
</trk>
<trk>
<name>hcmsl29</name>
<cmt>q</cmt>
<desc>Salles Sentier n°29 </desc>
<link href="https://chemins.be/salles/sentier/29"/><trkseg>
<trkpt lat="50.054067" lon="4.247690"><time>2026-05-03T07:34:51Z</time></trkpt>
<trkpt lat="50.051397" lon="4.248795"><time>2026-05-03T07:44:51Z</time></trkpt>
<trkpt lat="50.049088" lon="4.252194"><time>2026-05-03T07:54:51Z</time></trkpt>
<trkpt lat="50.047435" lon="4.253517"><time>2026-05-03T08:04:51Z</time></trkpt>
<trkpt lat="50.046095" lon="4.254589"><time>2026-05-03T08:14:51Z</time></trkpt>
<trkpt lat="50.044321" lon="4.255464"><time>2026-05-03T08:24:51Z</time></trkpt>
<trkpt lat="50.043902" lon="4.255241"><time>2026-05-03T08:34:51Z</time></trkpt>
</trkseg>
</trk>
<trk>
<name>hcmsl30</name>
<cmt>q</cmt>
<desc>Salles Sentier n°30 </desc>
<link href="https://chemins.be/salles/sentier/30"/><trkseg>
<trkpt lat="50.051392" lon="4.248776"><time>2026-05-03T07:34:51Z</time></trkpt>
<trkpt lat="50.049915" lon="4.247789"><time>2026-05-03T07:44:51Z</time></trkpt>
</trkseg>
</trk>
<trk>
<name>hcmsl31</name>
<cmt>q</cmt>
<desc>Salles Sentier n°31 </desc>
<link href="https://chemins.be/salles/sentier/31"/><trkseg>
<trkpt lat="50.054673" lon="4.247059"><time>2026-05-03T07:34:51Z</time></trkpt>
<trkpt lat="50.053383" lon="4.244851"><time>2026-05-03T07:44:51Z</time></trkpt>
<trkpt lat="50.050814" lon="4.239564"><time>2026-05-03T07:54:51Z</time></trkpt>
<trkpt lat="50.048455" lon="4.237676"><time>2026-05-03T08:04:51Z</time></trkpt>
<trkpt lat="50.047243" lon="4.235890"><time>2026-05-03T08:14:51Z</time></trkpt>
</trkseg>
</trk>
<trk>
<name>hcmsl32</name>
<cmt>q</cmt>
<desc>Salles Sentier n°32 </desc>
<link href="https://chemins.be/salles/sentier/32"/><trkseg>
<trkpt lat="50.055245" lon="4.247409"><time>2026-05-03T07:34:51Z</time></trkpt>
<trkpt lat="50.055146" lon="4.249709"><time>2026-05-03T07:44:51Z</time></trkpt>
<trkpt lat="50.055933" lon="4.254932"><time>2026-05-03T07:54:51Z</time></trkpt>
<trkpt lat="50.055939" lon="4.255430"><time>2026-05-03T08:04:51Z</time></trkpt>
</trkseg>
</trk>
<trk>
<name>hcmsl33</name>
<cmt>v</cmt>
<desc>Salles Sentier n°33 </desc>
<link href="https://chemins.be/salles/sentier/33"/><trkseg>
<trkpt lat="50.055691" lon="4.242727"><time>2026-05-03T07:34:51Z</time></trkpt>
<trkpt lat="50.055531" lon="4.238658"><time>2026-05-03T07:44:51Z</time></trkpt>
<trkpt lat="50.055547" lon="4.237507"><time>2026-05-03T07:54:51Z</time></trkpt>
</trkseg></trk>
<trk>
<name>hcmsl33</name>
<cmt>q</cmt>
<desc>Salles Sentier n°33 </desc>
<link href="https://chemins.be/salles/sentier/33"/><trkseg>
<trkpt lat="50.055547" lon="4.237507"><time>2026-05-03T07:54:51Z</time></trkpt>
<trkpt lat="50.055575" lon="4.235457"><time>2026-05-03T08:04:51Z</time></trkpt>
<trkpt lat="50.054721" lon="4.230916"><time>2026-05-03T08:14:51Z</time></trkpt>
<trkpt lat="50.053888" lon="4.227612"><time>2026-05-03T08:24:51Z</time></trkpt>
<trkpt lat="50.053679" lon="4.226402"><time>2026-05-03T08:34:51Z</time></trkpt>
</trkseg>
</trk>
<trk>
<name>hcmsl34</name>
<cmt>q</cmt>
<desc>Salles Sentier n°34 </desc>
<link href="https://chemins.be/salles/sentier/34"/><trkseg>
<trkpt lat="50.055620" lon="4.245170"><time>2026-05-03T07:34:51Z</time></trkpt>
<trkpt lat="50.057046" lon="4.244708"><time>2026-05-03T07:44:51Z</time></trkpt>
<trkpt lat="50.057781" lon="4.243186"><time>2026-05-03T07:54:51Z</time></trkpt>
<trkpt lat="50.058651" lon="4.241382"><time>2026-05-03T08:04:51Z</time></trkpt>
</trkseg>
</trk>
<trk>
<name>hcmsl35</name>
<cmt>q</cmt>
<desc>Salles Sentier n°35 </desc>
<link href="https://chemins.be/salles/sentier/35"/><trkseg>
<trkpt lat="50.098114" lon="4.205122"><time>2026-05-03T07:34:51Z</time></trkpt>
<trkpt lat="50.098852" lon="4.204753"><time>2026-05-03T07:44:51Z</time></trkpt>
<trkpt lat="50.098940" lon="4.204709"><time>2026-05-03T07:54:51Z</time></trkpt>
<trkpt lat="50.099609" lon="4.203891"><time>2026-05-03T08:04:51Z</time></trkpt>
</trkseg>
</trk>
<trk>
<name>hcmsl36</name>
<cmt>q</cmt>
<desc>Salles Sentier n°36 </desc>
<link href="https://chemins.be/salles/sentier/36"/><trkseg>
<trkpt lat="50.053882" lon="4.227601"><time>2026-05-03T07:34:51Z</time></trkpt>
<trkpt lat="50.053417" lon="4.226219"><time>2026-05-03T07:44:51Z</time></trkpt>
</trkseg>
</trk>
<trk>
<name>hcmsl4</name>
<cmt>v</cmt>
<desc>Salles Chemin n°4 </desc>
<link href="https://chemins.be/salles/chemin/4"/><trkseg>
<trkpt lat="50.057655" lon="4.241880"><time>2026-05-03T07:34:51Z</time></trkpt>
<trkpt lat="50.057072" lon="4.238561"><time>2026-05-03T07:44:51Z</time></trkpt>
<trkpt lat="50.056967" lon="4.238361"><time>2026-05-03T07:54:51Z</time></trkpt>
</trkseg>
</trk>
<trk>
<name>hcmsl7</name>
<cmt>v</cmt>
<desc>Salles Chemin n°7 </desc>
<link href="https://chemins.be/salles/chemin/7"/><trkseg>
<trkpt lat="50.057804" lon="4.273664"><time>2026-05-03T07:34:51Z</time></trkpt>
<trkpt lat="50.059832" lon="4.268412"><time>2026-05-03T07:44:51Z</time></trkpt>
<trkpt lat="50.061970" lon="4.265390"><time>2026-05-03T07:54:51Z</time></trkpt>
<trkpt lat="50.064703" lon="4.260996"><time>2026-05-03T08:04:51Z</time></trkpt>
<trkpt lat="50.065452" lon="4.258730"><time>2026-05-03T08:14:51Z</time></trkpt>
</trkseg>
</trk>
</gpx>